Theta_e
314 316 316 317 318 318 320 320 320 322 322 323 320 319 320 322 324 330 340 344 343 339 334 332 333 334 336 336 338 341 343 347 349 351 351 350 349 348 348 348 348 348 347 346 347 346 348 348 347 345 343 342 345 343 340 336 340 339 337 339 336 332 331 337 341 342 339 338 342 341 345 349 350 349 350 348 348 345 346 349 349 348 347 343 346
314 315 316 317 317 318 319 319 320 319 321 322 319 319 320 320 322 324 332 343 343 340 337 335 336 339 341 342 343 344 343 344 345 347 348 348 349 348 348 348 348 347 346 346 347 347 347 347 348 346 343 341 344 344 344 340 341 339 338 338 334 330 334 336 340 340 336 331 333 335 336 340 346 348 346 346 346 345 347 350 350 349 348 346 346
312 314 315 315 317 317 318 318 319 320 320 321 321 320 319 319 320 321 324 329 342 344 343 339 343 346 345 345 344 344 348 348 347 347 349 348 349 349 348 348 347 347 346 344 344 345 346 347 349 347 345 341 341 341 343 344 344 339 339 330 328 330 335 340 342 339 331 335 335 332 328 330 340 342 347 347 344 344 345 348 347 349 349 346 344
310 312 313 314 315 316 317 317 318 319 319 320 320 320 320 320 320 320 321 325 330 342 345 345 347 347 349 349 348 346 345 348 349 349 348 348 346 348 348 348 347 346 346 344 344 344 345 345 347 347 345 344 340 339 340 337 342 338 335 331 333 329 332 337 341 341 336 335 326 322 326 325 321 330 336 342 345 344 344 343 345 346 348 348 347
309 311 312 313 314 314 315 316 318 317 318 318 318 319 320 320 321 321 321 322 326 333 342 347 347 346 344 345 347 348 347 346 346 344 346 347 346 347 347 347 347 346 347 346 343 344 345 345 346 346 346 345 340 337 339 337 335 336 334 332 334 329 330 337 339 341 340 339 330 328 326 319 320 329 331 338 343 341 343 343 344 347 346 347 345
309 310 311 312 313 314 315 316 316 317 317 317 319 319 320 320 321 322 322 322 324 329 337 345 345 341 338 339 341 342 339 340 340 340 342 344 343 347 348 347 347 347 347 346 345 344 344 344 346 345 345 346 343 335 337 339 338 335 332 332 331 334 336 335 335 342 341 341 338 338 336 329 324 329 325 323 342 343 342 341 344 345 347 346 342
310 310 311 312 313 313 314 314 315 315 317 318 318 319 320 321 322 322 322 322 324 328 333 339 342 343 341 339 342 340 339 341 345 345 344 344 346 346 346 349 347 347 347 346 346 345 344 344 344 345 346 346 346 341 335 338 337 336 334 333 329 330 336 332 337 339 341 344 340 341 339 338 335 333 325 327 326 338 340 340 342 344 346 346 344
308 309 310 311 312 313 312 314 314 315 316 317 318 319 319 320 321 322 323 323 324 326 331 336 339 343 342 341 340 339 341 341 345 346 348 347 344 346 347 348 349 348 347 346 346 345 344 343 343 345 345 345 343 342 338 337 338 339 340 339 336 332 336 332 339 338 335 337 340 340 339 340 339 337 335 330 326 325 332 339 342 342 343 342 345
308 308 309 310 311 312 313 313 315 316 316 316 317 318 319 320 321 322 322 323 324 325 326 332 338 340 342 339 337 340 340 342 344 344 343 345 344 345 347 346 347 350 349 348 347 345 345 345 343 343 344 345 343 342 341 340 340 338 340 343 340 338 339 337 340 337 335 336 338 339 338 337 337 338 339 336 328 325 325 333 335 339 341 342 342
308 309 310 310 312 312 314 314 315 315 316 317 317 318 318 319 319 321 321 323 324 324 325 328 333 338 340 341 336 335 339 338 339 342 344 344 343 344 345 345 346 349 350 349 348 346 345 345 344 342 344 344 343 341 341 341 341 339 342 345 345 345 344 339 340 340 337 340 339 339 337 337 336 335 336 335 334 332 325 327 334 335 332 337 341
306 308 309 310 312 313 313 313 314 315 316 316 317 316 318 318 319 319 321 322 323 324 325 326 328 332 339 339 339 337 336 336 338 336 345 344 342 343 343 344 346 346 349 350 349 348 347 345 344 343 343 344 343 341 341 341 342 341 342 345 346 346 341 340 342 343 340 341 339 339 338 337 334 333 335 336 335 332 327 325 333 336 336 336 339
306 307 307 309 310 311 312 311 313 314 315 315 316 316 317 317 318 318 320 321 322 323 324 324 326 329 335 340 340 341 338 338 336 338 342 343 343 342 343 343 345 346 349 349 350 348 348 347 346 344 342 343 342 344 343 341 341 342 341 344 344 345 345 342 341 340 344 341 342 340 339 338 338 336 336 337 336 332 332 330 329 336 337 335 339
305 306 307 308 308 309 309 310 311 312 313 314 315 316 316 317 317 317 318 320 321 322 323 324 324 326 330 335 340 340 342 340 341 338 340 339 338 341 342 341 342 343 346 348 350 351 348 347 346 344 342 343 345 344 344 342 340 341 342 343 343 344 341 344 341 341 345 339 341 340 341 338 338 340 339 337 338 337 334 329 331 337 334 334 337
305 305 306 307 308 309 309 310 310 311 312 313 314 315 315 316 317 317 317 319 320 321 322 323 324 324 328 331 336 339 339 342 342 339 341 341 342 342 341 342 341 342 344 347 350 351 349 347 346 345 344 343 344 345 345 344 342 341 343 343 343 344 344 346 344 344 345 343 344 342 341 338 338 340 341 341 339 337 332 331 331 336 336 334 336
305 305 306 307 308 309 309 310 310 311 311 312 313 314 315 315 315 316 316 318 319 319 320 322 322 324 325 328 331 337 339 339 339 340 341 341 341 342 342 342 343 343 342 346 350 351 351 349 347 346 346 344 344 345 346 345 344 343 343 344 345 345 345 346 344 344 343 343 344 343 341 340 340 341 341 342 340 339 336 334 332 332 333 333 333
304 305 305 307 308 309 308 308 309 310 311 312 312 313 314 314 315 315 316 317 318 319 319 321 322 324 324 325 328 333 337 339 339 340 341 343 344 342 342 340 342 343 344 344 345 348 350 349 348 344 339 340 343 345 345 345 346 345 342 343 345 344 346 347 345 345 344 345 345 344 342 340 343 344 343 343 341 342 340 338 336 334 331 327 331
303 304 305 307 308 309 308 308 309 310 310 311 312 312 313 314 314 314 316 317 317 318 319 320 322 323 324 324 325 328 334 337 337 339 341 342 343 344 344 345 348 347 345 346 346 347 347 349 347 341 339 341 343 344 345 345 345 345 345 343 343 344 346 347 345 344 345 345 344 345 342 342 343 346 346 345 345 344 342 339 338 337 336 330 329
303 304 305 306 307 307 308 308 309 309 310 310 311 314 314 314 314 314 315 315 317 318 318 320 321 322 324 324 324 325 329 335 338 338 340 340 341 342 343 342 344 346 347 348 347 347 347 348 349 345 342 342 344 345 345 345 346 345 345 344 343 345 346 346 346 346 346 346 345 344 344 341 345 347 346 348 346 345 342 341 339 341 340 334 332
303 304 304 305 305 305 307 308 309 310 310 311 311 312 313 314 315 315 314 315 316 317 318 319 320 321 322 323 324 324 326 330 337 339 340 339 339 340 341 342 344 345 345 345 344 345 344 345 346 344 343 342 343 345 345 345 346 344 345 344 343 344 344 344 345 347 347 347 345 344 344 342 346 347 347 347 347 345 343 342 341 344 342 341 336
302 303 303 304 304 306 306 307 308 309 309 310 311 311 312 312 314 314 315 315 316 317 318 318 319 320 322 323 324 323 325 328 333 338 338 337 339 340 340 342 342 344 344 344 342 343 342 342 342 343 343 343 342 342 344 344 346 344 344 344 343 344 343 343 344 345 346 346 346 344 344 343 346 346 346 347 346 346 345 343 343 343 343 343 341
302 302 303 303 304 305 306 307 308 309 310 310 310 311 311 311 312 313 314 314 315 316 317 317 318 319 321 322 323 324 325 327 331 336 338 338 339 340 341 342 342 342 344 343 342 341 341 341 341 342 343 343 343 342 343 344 343 344 344 344 343 343 342 342 343 343 345 345 345 344 344 345 347 345 344 345 345 344 345 345 344 343 342 343 342
302 302 303 303 304 305 305 306 307 307 308 309 309 310 311 311 311 312 313 313 314 314 315 316 318 319 320 321 322 324 324 326 329 334 336 337 339 339 341 342 343 343 345 343 342 343 342 341 341 341 343 342 343 339 343 343 342 341 343 344 343 342 342 341 342 342 344 345 344 343 343 344 345 344 343 344 344 343 345 344 343 343 341 341 344
301 302 303 303 304 304 305 306 306 306 306 307 308 308 309 310 310 311 311 313 314 315 315 316 316 318 319 321 322 323 323 325 327 331 335 336 337 340 341 341 341 343 346 346 344 342 341 340 340 341 340 341 343 342 341 343 342 341 342 343 344 343 342 341 341 341 342 345 344 343 343 342 344 343 344 344 345 344 344 343 344 344 343 343 344
303 303 303 304 304 305 305 305 305 305 306 306 307 307 308 309 310 310 311 312 313 314 315 315 316 316 318 319 320 322 323 324 326 328 331 335 336 338 340 339 340 342 344 345 345 342 340 340 340 340 339 340 343 343 342 341 342 342 342 342 343 342 343 342 342 341 341 342 343 343 343 342 344 343 343 344 345 345 343 343 344 345 346 344 344
302 302 303 304 304 304 304 304 304 305 305 306 306 306 307 308 309 309 310 311 312 313 314 314 315 316 316 318 319 321 322 323 324 327 330 333 335 337 339 338 339 341 339 342 344 343 340 339 340 339 338 337 341 343 341 340 341 342 343 342 342 342 343 342 343 342 341 342 343 342 342 343 342 341 343 343 344 344 344 343 343 344 343 344 344
300 301 302 302 303 303 304 304 304 304 305 305 306 306 306 307 308 310 310 311 312 313 313 314 314 314 315 316 318 320 321 322 323 327 331 331 333 336 337 339 339 340 339 342 343 343 340 339 339 339 337 337 339 342 338 337 338 340 344 343 343 342 342 342 343 343 341 343 343 342 342 342 342 342 342 342 343 343 345 344 343 343 343 343 343
300 301 303 303 302 302 303 304 304 305 306 305 305 305 305 306 307 308 310 311 312 313 313 313 313 314 314 316 318 319 320 322 322 324 330 332 333 335 336 336 339 340 341 341 340 336 337 340 339 339 336 335 336 342 339 337 336 339 339 341 342 343 342 342 343 342 341 342 342 341 342 342 341 342 342 343 343 343 343 344 344 344 344 343 342
300 301 301 301 301 302 303 304 305 305 306 306 305 305 305 306 306 308 309 310 312 312 313 313 313 313 314 314 317 319 320 321 323 323 326 331 331 334 335 336 337 339 340 338 336 336 337 339 340 338 335 335 335 340 342 338 337 338 339 339 342 340 341 342 343 342 342 342 343 343 342 343 343 343 343 343 344 343 345 344 345 345 344 342 342
300 301 301 301 301 302 302 303 304 305 304 304 305 306 306 306 307 308 309 310 311 311 312 313 313 313 314 314 316 318 321 321 322 322 323 329 332 332 334 335 337 338 339 337 335 334 332 335 340 339 334 335 337 345 340 335 333 334 336 339 341 341 340 340 342 342 342 342 343 344 343 344 344 340 332 334 335 336 344 342 345 345 344 343 342
299 300 301 302 302 302 302 303 302 302 303 303 305 305 306 306 307 308 308 310 311 311 311 312 312 313 314 315 315 317 319 320 321 321 322 326 327 331 334 334 335 337 337 336 334 333 331 335 338 334 334 337 344 344 333 323 323 330 333 335 339 339 340 342 342 341 342 342 342 343 344 338 334 331 326 319 318 320 327 340 345 346 344 344 343
299 299 300 301 302 301 301 301 301 302 303 304 304 305 306 306 307 307 309 311 311 310 311 311 311 313 314 315 315 315 318 319 321 321 322 325 326 329 333 333 334 333 336 337 334 331 329 335 335 332 333 338 341 340 314 308 310 316 329 332 331 330 329 333 338 342 342 342 342 342 344 341 338 330 334 315 315 312 315 318 320 326 333 346 345
299 299 300 300 300 300 300 301 302 302 303 303 304 304 305 306 308 308 310 312 313 312 313 312 312 313 314 315 315 315 317 318 320 320 322 325 325 331 331 331 333 335 335 334 333 330 329 336 337 334 333 338 341 324 307 308 308 307 315 332 332 333 335 338 340 341 340 341 342 342 343 344 345 345 345 341 326 314 311 314 314 313 314 318 323
299 300 300 300 300 300 301 301 301 302 302 304 305 304 305 307 308 309 311 314 315 314 314 313 313 313 313 315 315 316 317 318 319 320 323 325 328 328 327 326 330 335 335 332 333 331 332 338 338 336 335 340 343 316 307 307 306 304 306 321 335 338 340 341 342 341 342 340 341 341 342 344 343 335 340 343 344 340 315 311 314 314 312 310 309
299 300 299 300 301 301 301 302 302 303 304 305 306 306 306 308 308 310 312 314 314 313 313 313 313 314 314 315 316 317 317 318 319 320 323 325 326 324 327 327 331 333 331 332 331 336 337 337 338 337 337 339 342 318 304 304 304 302 303 307 330 339 340 340 342 342 341 341 341 341 341 342 344 345 345 343 343 343 343 337 336 339 343 333 312
298 299 299 300 301 301 302 302 302 303 305 305 305 306 306 308 309 309 312 313 314 313 313 313 313 313 314 315 316 317 317 318 319 321 324 326 324 325 325 326 330 332 331 332 331 332 336 338 337 338 338 338 340 308 303 303 303 302 303 305 326 334 339 341 340 341 342 342 343 344 344 343 343 343 344 341 343 342 342 342 341 342 343 344 345
298 298 299 300 301 301 301 301 304 304 305 305 304 304 305 306 308 311 311 311 314 314 315 314 314 315 315 316 317 317 317 317 319 322 324 324 323 325 329 329 330 331 332 332 333 335 335 336 337 338 338 337 340 303 303 302 302 301 301 318 326 332 337 338 336 336 338 339 339 341 344 343 343 343 331 317 326 342 341 340 340 341 342 344 345
299 300 300 301 302 302 302 303 303 304 305 304 304 305 305 305 308 309 309 310 313 315 314 316 316 316 317 317 317 317 317 317 319 321 320 323 322 325 328 330 329 328 329 332 334 332 332 335 336 337 337 337 339 313 301 302 302 300 304 325 328 331 334 336 336 336 337 339 339 343 343 343 343 343 325 310 312 319 342 340 339 339 340 341 342
300 301 301 302 302 303 303 303 302 304 304 305 305 304 304 305 307 308 308 310 312 312 315 316 316 318 319 319 318 317 317 318 321 322 324 326 327 328 328 331 327 330 332 333 333 333 334 335 336 336 337 337 337 322 301 302 302 300 311 328 330 330 332 334 335 337 338 338 339 332 340 343 342 343 314 306 309 323 341 339 339 339 340 340 341
300 300 301 301 302 303 303 303 303 302 303 304 304 304 304 305 306 306 307 308 308 310 313 316 316 319 320 319 319 319 320 322 322 323 324 325 325 327 327 331 331 333 333 333 332 331 334 334 336 337 329 334 337 326 302 302 301 301 310 330 332 332 331 333 335 336 336 336 338 336 330 333 339 335 307 306 306 324 340 340 339 340 338 338 340
300 302 303 303 303 303 303 302 302 303 304 304 304 303 304 304 305 305 304 304 306 309 312 315 318 319 320 321 322 321 320 321 322 323 321 320 320 324 331 330 331 331 330 332 332 332 329 330 333 337 338 336 337 341 316 300 301 300 303 328 333 332 331 333 335 335 335 336 337 339 333 312 310 312 305 301 304 312 339 341 341 339 338 338 342
300 301 301 303 303 303 303 302 303 303 304 304 304 303 303 303 304 304 303 304 307 310 312 314 319 318 318 316 316 314 315 317 319 320 321 319 318 317 319 322 326 331 331 331 331 329 329 331 335 337 337 337 338 338 328 299 301 300 301 311 332 333 333 333 334 334 335 336 335 337 340 318 308 309 305 298 303 305 316 342 342 340 340 340 332
303 302 302 302 302 303 303 303 303 303 304 303 303 302 302 302 302 302 304 306 309 310 313 315 320 319 319 320 319 317 318 319 321 323 322 320 320 318 319 319 320 321 324 329 330 329 330 331 334 336 336 337 335 326 340 302 300 300 301 302 326 333 333 334 334 334 335 337 336 338 340 323 306 309 307 301 301 303 304 334 341 319 318 314 341
301 302 303 302 302 302 302 302 303 303 303 303 302 301 301 301 301 302 305 307 309 311 314 315 317 320 319 320 321 322 323 323 322 322 323 322 322 322 321 319 316 318 318 317 320 323 326 328 332 332 334 336 337 333 315 321 300 300 299 300 305 320 312 333 334 333 334 336 337 338 338 317 304 306 306 304 302 300 304 321 315 312 308 304 316
302 303 302 302 301 302 302 302 303 303 303 302 301 300 301 300 301 304 305 307 309 311 314 314 314 316 319 320 320 321 323 324 324 324 323 325 324 325 323 320 320 319 319 316 317 318 319 321 326 331 332 332 335 336 319 313 310 297 300 299 300 303 308 328 333 333 335 337 337 338 333 314 301 304 303 303 303 302 311 307 306 308 306 307 335
301 302 302 302 301 301 301 302 302 303 303 302 302 301 300 300 302 304 305 306 307 308 310 312 313 313 314 318 321 322 322 322 323 321 320 321 322 323 321 322 323 323 321 320 321 322 320 319 322 329 332 331 332 333 336 319 305 300 299 298 298 299 301 302 324 331 332 335 323 315 314 311 304 300 300 300 302 302 301 304 303 304 311 331 336
302 302 302 302 302 302 301 301 302 302 302 302 302 301 300 300 302 303 304 305 306 306 307 309 310 312 312 313 316 318 321 321 322 322 321 320 319 319 318 319 320 321 321 322 320 320 321 322 321 326 329 329 330 332 333 333 314 307 303 298 299 299 302 301 308 322 313 310 307 305 303 303 303 305 313 316 318 318 302 300 301 304 320 327 333
300 301 301 302 302 301 300 300 300 301 302 301 302 302 302 302 302 303 304 305 305 304 305 306 307 309 310 310 312 312 315 319 321 320 321 320 318 318 318 317 319 319 320 319 317 318 321 320 322 326 327 327 329 330 331 332 332 328 324 315 307 308 302 301 308 315 311 318 318 315 321 315 318 307 309 311 312 312 312 311 312 315 320 324 328
302 302 302 302 301 301 300 300 300 300 301 301 302 302 302 302 302 302 303 303 303 303 303 304 305 306 306 307 309 302 308 315 316 316 317 319 319 319 318 317 317 319 319 319 319 320 317 319 324 326 326 326 326 328 330 330 331 332 331 330 325 322 323 319 319 323 327 327 327 314 314 323 324 321 316 321 325 327 325 323 326 324 323 324 325
301 302 302 301 301 301 300 300 300 301 301 302 302 302 303 302 302 302 302 302 302 302 302 303 304 304 304 304 307 308 309 311 312 312 313 314 314 315 315 316 318 320 321 320 320 321 321 325 325 325 324 324 324 323 325 314 332 315 325 331 329 328 328 326 318 311 327 328 326 325 325 325 324 321 319 320 322 324 325 327 330 333 331 329 328
302 303 303 302 302 301 300 300 300 301 302 302 302 303 303 303 302 302 302 301 301 301 301 301 301 302 302 303 305 306 307 307 307 307 306 307 300 299 306 313 314 305 295 292 298 318 320 322 324 326 328 326 325 327 313 310 309 306 307 308 311 312 311 320 312 302 314 326 324 322 322 322 323 324 323 322 323 324 324 325 327 317 329 331 329
302 302 301 301 301 301 301 301 301 302 301 302 302 303 303 303 303 303 302 301 300 300 300 299 299 299 298 300 303 303 303 304 305 305 304 303 306 307 302 295 293 293 292 292 291 291 291 292 308 319 319 307 304 302 304 303 301 302 304 304 304 303 304 305 304 314 316 318 319 319 320 322 322 324 324 324 323 324 324 324 326 326 327 327 323
Wind_Speed
9 9 10 11 12 12 11 11 12 12 13 14 13 14 13 8 7 6 5 5 5 6 7 9 10 11 12 13 12 12 10 9 8 8 8 9 11 11 11 10 11 11 12 12 11 10 8 7 8 8 8 8 8 8 8 8 8 8 8 8 9 8 7 6 5 4 4 3 3 3 3 3 4 4 4 3 3 2 2 3 4 2 3 2 4
9 9 10 10 10 12 10 10 13 14 12 12 13 11 12 13 8 8 8 6 8 9 10 11 13 12 13 12 10 9 9 9 10 10 10 9 10 11 11 11 12 11 11 12 11 11 9 9 8 8 8 8 7 7 8 7 7 8 8 7 7 8 6 7 7 6 5 5 5 5 4 4 3 3 4 4 3 2 2 3 3 3 2 2 2
10 9 10 9 10 11 9 10 10 10 10 10 10 11 9 9 12 8 6 9 9 11 11 11 12 13 11 9 9 7 8 8 8 9 10 11 11 11 11 11 12 12 12 11 10 11 10 8 7 7 8 8 8 8 7 8 7 9 10 8 8 8 6 7 8 8 6 5 4 3 5 5 5 4 3 3 2 2 2 4 4 4 3 4 6
13 12 11 10 10 9 9 9 9 9 9 9 9 10 7 6 6 9 9 8 9 9 10 12 12 12 11 10 8 8 6 7 9 9 10 11 13 12 11 11 12 12 12 12 11 10 11 10 9 7 8 8 9 8 9 10 8 8 9 9 9 9 8 7 7 8 6 6 6 6 3 5 5 6 5 5 3 3 3 4 4 4 5 3 1
13 13 11 11 10 10 9 8 8 8 9 9 9 8 6 9 8 7 7 8 8 10 11 11 10 8 7 7 9 8 8 8 8 10 10 11 11 12 12 12 12 12 12 13 12 11 11 11 10 9 8 9 9 10 9 10 10 10 11 9 10 9 8 6 6 7 8 6 5 4 4 5 5 5 4 5 6 4 3 3 4 5 5 5 2
13 13 13 11 10 9 9 8 8 7 8 8 8 8 8 8 9 9 7 7 7 8 11 9 10 6 7 7 10 10 10 10 11 11 11 11 11 11 11 12 13 13 13 13 13 12 12 12 12 11 9 8 9 10 10 9 10 11 11 10 11 10 9 8 7 6 7 7 6 5 4 5 2 4 3 4 3 3 5 4 5 5 5 5 5
11 13 13 12 10 11 10 9 9 8 7 7 7 8 8 8 8 8 8 7 7 7 9 9 9 9 12 13 11 11 11 10 10 10 10 10 10 11 11 12 13 13 13 14 14 13 13 12 13 12 9 8 8 9 10 11 10 10 10 11 10 10 10 9 10 8 7 6 7 6 5 4 2 3 4 2 5 4 4 5 5 5 6 5 5
10 12 14 13 11 10 11 10 9 9 8 7 7 7 8 8 7 7 6 7 7 7 8 9 9 10 9 10 11 12 13 12 11 11 10 8 9 11 11 11 12 13 12 13 14 14 13 13 13 12 11 8 8 9 10 10 9 9 9 9 9 9 10 9 10 10 9 7 8 7 6 4 4 5 4 4 4 3 6 4 4 5 5 6 6
9 10 13 14 14 12 10 10 10 9 8 8 8 8 8 8 8 7 7 6 6 8 8 8 9 10 10 11 11 11 11 14 12 11 10 10 11 10 11 11 11 12 12 13 14 14 13 13 13 13 13 10 9 9 9 11 12 11 10 8 9 8 8 8 9 9 9 8 9 7 7 6 6 5 4 4 6 5 4 7 6 5 5 6 6
8 9 10 11 13 13 12 11 10 9 8 8 9 8 8 8 8 8 8 7 6 7 8 9 8 9 10 12 13 12 7 8 11 11 10 10 11 11 10 10 10 10 11 12 12 14 14 14 12 14 14 12 9 9 10 11 11 12 11 10 9 9 7 8 9 8 9 8 9 8 7 7 7 6 5 5 6 7 6 4 7 8 7 7 6
8 9 9 9 11 13 13 12 11 10 8 8 8 9 9 9 9 9 8 7 7 7 7 8 7 8 11 13 15 14 11 14 11 15 11 11 11 11 11 11 10 11 11 11 12 13 13 13 12 13 13 12 10 10 10 10 10 10 10 12 11 10 8 9 9 9 8 9 10 9 8 8 7 7 6 6 6 6 6 6 4 6 5 6 8
9 9 10 10 12 12 14 15 13 11 10 9 8 9 9 10 9 10 9 8 8 7 7 7 7 8 11 13 15 15 16 12 14 14 10 11 12 12 11 11 11 11 11 11 12 13 12 12 14 14 13 12 12 10 10 10 9 9 10 10 10 11 9 9 9 10 10 9 10 8 8 8 8 7 6 6 6 6 6 5 5 4 5 4 7
9 9 9 10 11 13 14 14 15 13 11 10 10 10 9 9 10 11 11 10 9 8 8 7 8 9 9 11 12 13 14 16 15 13 11 11 12 13 12 12 11 11 11 11 12 14 12 12 13 13 12 12 12 11 10 10 9 9 10 11 10 12 11 10 9 11 10 9 9 9 8 8 8 7 6 6 6 6 6 6 5 5 5 5 6
10 10 10 10 11 13 14 15 15 14 14 13 11 9 9 9 11 12 12 11 10 10 9 9 8 9 9 10 11 11 14 15 15 14 13 14 12 11 13 12 11 12 12 12 11 13 13 13 14 14 14 14 13 12 11 10 10 9 10 10 11 10 10 12 10 11 10 11 9 9 9 8 8 7 7 7 7 7 7 8 5 5 6 5 5
10 10 11 12 13 14 13 13 14 15 16 15 12 10 10 11 10 11 13 12 11 11 11 10 9 8 9 10 10 11 12 13 14 14 14 15 13 13 11 12 12 12 12 12 12 13 13 13 13 13 10 12 13 12 9 9 10 10 9 10 10 9 11 11 10 12 11 12 11 9 9 9 8 8 7 8 8 8 8 8 7 7 7 6 6
13 13 12 13 13 13 13 13 15 15 16 15 15 13 12 11 12 13 13 13 12 12 11 11 10 8 9 11 11 12 11 12 13 13 14 14 13 13 13 14 13 11 11 11 12 12 12 12 11 7 8 13 13 12 11 11 11 11 10 9 10 9 10 13 11 12 12 13 12 11 9 9 9 8 8 8 8 8 8 8 8 8 8 7 7
14 14 14 15 15 14 13 13 13 15 15 15 16 16 16 14 12 13 13 13 13 12 12 11 11 10 10 10 11 12 13 14 14 15 15 15 15 15 14 14 13 11 11 10 10 11 13 13 13 15 16 14 15 15 14 13 12 12 11 11 11 11 11 12 11 11 11 12 11 13 11 9 9 9 8 8 8 8 8 8 9 9 9 8 7
16 15 15 15 15 16 15 14 16 15 16 17 16 15 14 14 14 14 14 14 13 12 12 11 11 11 11 11 12 13 13 14 15 16 15 15 15 14 14 14 14 12 10 10 10 11 12 14 12 13 13 13 14 14 15 15 14 12 12 12 11 11 11 11 11 11 11 11 11 11 11 10 9 9 9 8 8 8 9 9 9 9 9 9 8
14 14 14 14 14 15 16 18 17 16 16 15 15 15 15 15 15 16 17 16 14 12 12 11 11 9 9 10 12 12 13 15 15 15 15 16 17 16 16 16 15 14 12 10 11 12 11 12 13 14 14 14 13 12 14 15 15 13 13 12 12 12 12 12 12 12 11 11 12 13 12 11 10 10 10 9 9 9 9 9 9 9 9 9 9
16 15 15 15 15 17 17 17 18 18 17 15 15 14 16 16 16 16 16 16 16 15 13 13 12 12 11 11 12 12 13 14 15 15 15 17 18 17 17 17 17 14 13 12 12 12 12 12 13 14 15 15 15 14 13 15 15 14 13 12 12 14 15 14 13 13 11 12 13 13 13 12 11 10 10 9 9 9 10 10 10 9 10 9 8
15 15 15 16 16 16 16 16 17 17 16 16 15 16 15 15 16 17 17 17 17 15 14 13 12 13 13 14 13 13 14 14 15 17 17 17 17 17 17 16 15 16 15 14 14 14 13 12 14 14 15 15 15 16 14 12 14 15 14 13 14 15 16 14 14 15 14 13 14 13 13 13 12 12 11 10 10 10 10 10 10 10 10 9 9
15 15 15 16 16 17 15 14 15 16 16 18 17 16 17 16 16 15 16 16 16 16 14 14 13 12 14 14 14 13 14 14 15 16 18 18 17 17 17 17 16 16 15 15 15 13 12 13 13 14 15 16 15 17 15 13 13 15 14 12 14 16 16 16 14 15 16 13 13 14 14 14 14 14 13 12 11 11 11 11 11 11 10 10 10
15 15 15 16 15 15 15 17 17 17 16 17 17 17 17 17 17 16 16 17 17 17 17 15 14 14 14 14 14 14 14 15 16 15 18 19 18 18 17 18 17 15 15 15 15 14 13 14 14 13 15 16 16 14 14 13 14 16 16 14 14 16 16 16 16 16 16 15 14 14 15 14 12 14 14 12 12 12 11 12 12 11 11 10 10
15 14 15 15 16 16 16 17 17 17 17 17 16 17 17 17 17 16 17 17 18 17 17 17 18 17 16 15 15 14 15 15 16 15 18 19 18 17 17 19 18 14 12 14 14 14 14 14 14 14 15 15 16 14 13 14 16 16 17 17 16 16 16 16 16 16 16 15 16 14 15 15 14 15 14 13 12 12 11 11 12 11 10 11 10
17 17 18 18 18 18 17 18 18 18 17 17 17 16 16 17 16 17 17 17 17 17 17 18 18 20 18 16 17 16 15 16 17 15 18 19 19 18 17 19 18 15 15 16 13 14 14 14 14 15 15 15 16 15 12 12 15 16 17 17 17 17 16 16 16 16 16 16 16 16 15 16 16 16 14 14 13 14 12 11 12 11 11 10 10
18 19 19 19 18 17 18 19 18 18 18 17 16 16 17 17 18 17 18 18 18 17 18 18 18 19 19 19 17 16 17 17 17 17 18 18 18 18 18 17 18 18 19 17 14 12 13 15 15 15 15 15 16 13 12 13 12 16 15 16 16 16 16 16 16 16 16 16 15 16 16 16 16 16 15 15 14 15 13 12 13 11 11 10 11
18 19 19 19 18 20 20 20 19 19 18 17 16 17 16 17 18 19 18 18 18 18 19 19 19 20 20 20 18 17 16 16 16 16 16 16 18 18 19 19 17 18 17 15 14 15 16 15 15 15 15 15 15 15 14 12 13 11 14 17 16 15 15 15 16 16 16 16 16 16 16 16 16 17 16 16 15 14 14 14 12 12 11 10 10
17 18 20 20 20 20 20 21 21 19 19 18 18 17 17 16 17 17 18 18 15 17 18 19 19 19 20 20 17 17 16 16 15 16 17 17 18 18 19 19 18 18 17 16 13 12 14 14 14 14 14 14 14 14 15 13 10 14 12 16 15 15 16 15 15 15 15 15 16 16 16 15 16 16 17 16 15 14 12 14 12 11 11 12 11
20 19 20 20 21 21 22 22 21 21 21 21 19 18 17 17 17 18 17 18 19 18 19 19 19 19 19 19 17 16 15 16 16 16 17 18 19 19 20 18 18 16 15 16 13 14 16 18 14 13 14 13 10 6 5 7 7 12 15 18 16 14 13 15 14 13 14 15 15 15 15 15 16 16 17 14 14 14 13 13 13 12 12 12 12
21 21 22 21 22 22 23 22 22 21 22 21 19 19 18 19 19 18 16 17 16 18 20 20 19 19 17 18 19 16 16 16 16 16 18 17 18 17 18 18 19 17 16 15 14 13 17 17 14 14 13 10 7 7 9 14 13 10 5 6 5 7 11 12 11 12 13 14 15 14 14 16 15 15 14 14 13 13 13 12 13 14 14 13 12
22 22 22 22 23 23 23 24 24 23 23 20 19 18 17 18 18 18 17 17 17 17 17 19 20 18 18 18 18 16 16 17 16 16 16 17 18 17 17 19 18 17 17 14 12 13 16 16 13 13 13 10 9 7 16 16 16 17 13 8 6 6 5 11 12 11 11 14 14 15 14 14 12 11 14 15 15 13 14 15 13 14 15 15 14
23 22 22 22 23 23 23 23 23 23 22 21 19 19 18 18 18 18 17 16 16 14 16 18 19 18 18 19 18 16 17 17 16 17 17 16 17 15 13 13 14 14 14 13 13 15 17 14 11 12 12 10 11 11 18 18 17 17 15 10 10 10 11 13 14 13 12 14 15 14 13 12 14 16 16 14 13 15 15 16 16 14 13 15 14
21 22 21 21 22 22 22 21 21 20 20 21 20 20 18 18 19 17 16 16 15 14 14 15 17 17 17 17 17 16 17 16 16 17 15 16 14 12 14 16 19 14 11 10 11 13 17 13 11 12 11 11 10 13 18 20 18 17 19 16 11 12 13 13 12 12 12 14 14 13 13 12 12 16 15 16 16 14 13 17 16 16 13 13 15
21 20 20 21 21 21 20 20 20 20 20 20 20 19 18 18 18 17 16 17 13 12 11 12 14 16 17 17 16 16 17 16 16 15 14 13 11 15 16 16 15 12 13 14 15 16 12 12 11 12 11 11 12 11 17 17 16 16 17 14 7 10 14 13 12 11 12 13 14 14 13 13 13 13 15 17 16 17 15 12 11 12 13 13 12
19 21 22 22 22 22 21 20 19 20 20 20 19 17 18 18 17 16 15 16 14 11 10 11 13 15 16 16 16 17 16 15 16 15 13 11 10 16 17 16 13 12 14 13 14 15 12 11 11 11 11 11 10 13 16 18 17 18 18 15 10 9 10 10 9 8 9 10 13 13 14 14 13 14 14 16 16 16 16 16 16 15 15 16 14
18 20 19 20 19 18 18 19 19 20 19 19 20 20 20 19 17 17 14 14 15 11 11 10 13 14 15 16 16 15 15 15 15 15 13 13 15 15 13 11 10 10 10 12 14 12 13 12 12 12 12 12 9 15 16 17 18 18 18 11 9 11 13 11 7 10 10 12 13 16 15 15 13 14 14 18 16 15 16 17 18 19 19 18 17
18 18 20 19 18 18 19 19 18 19 18 17 19 20 19 18 18 16 16 15 13 12 8 10 11 13 14 15 15 15 14 15 15 15 16 16 15 17 14 12 13 15 17 16 12 11 13 13 13 13 12 10 10 13 17 18 18 19 14 10 9 11 14 14 10 11 12 12 16 18 15 14 14 14 13 18 18 14 14 17 16 17 16 16 15
17 19 19 19 19 19 19 18 19 19 19 18 18 19 20 18 15 15 16 15 12 12 11 7 10 13 13 14 14 15 15 16 16 17 16 16 16 14 15 12 16 16 15 14 14 14 14 13 15 14 13 12 12 14 18 19 19 19 16 13 13 13 13 13 14 13 12 13 18 18 17 15 14 14 14 19 19 15 15 17 16 16 16 16 15
18 17 18 20 19 19 18 18 19 19 19 18 17 16 16 16 16 16 16 15 16 14 14 10 8 11 13 12 13 14 13 12 13 14 14 14 13 13 14 12 14 14 15 14 13 14 12 13 15 15 14 15 13 12 18 19 20 19 16 12 13 11 12 13 14 15 15 15 16 16 16 16 14 14 14 18 20 17 17 17 16 16 16 16 15
18 17 18 19 18 18 18 19 20 19 19 19 17 16 17 17 16 13 13 13 15 15 15 14 9 7 8 8 5 2 4 5 5 7 8 7 7 8 7 12 15 13 12 13 13 12 16 16 15 14 13 15 13 10 14 18 19 19 20 13 13 13 13 14 13 14 14 16 16 15 14 18 16 11 9 16 19 21 19 18 15 16 16 16 14
15 17 18 17 17 16 18 19 18 19 18 17 17 16 16 16 16 16 18 15 14 14 14 14 3 2 5 5 6 5 4 4 5 1 5 3 2 2 4 10 11 13 13 12 12 13 14 14 14 14 14 15 12 13 12 20 19 20 21 17 13 14 14 13 13 12 13 14 15 13 13 15 18 17 13 14 17 20 20 17 17 15 15 13 10
17 18 17 17 17 18 19 19 18 19 18 16 16 16 15 16 15 18 18 16 15 14 13 12 11 8 3 7 8 6 5 3 3 5 3 2 1 1 1 3 6 10 11 7 7 9 10 12 13 14 12 13 13 14 9 16 19 20 20 21 14 14 13 12 13 14 13 13 13 12 13 12 20 19 18 15 17 18 21 13 17 15 13 11 9
18 20 19 18 18 18 19 19 18 18 18 16 18 17 17 16 17 17 16 17 16 14 14 13 13 10 7 8 7 7 4 3 3 3 2 3 2 1 2 3 1 4 6 8 8 8 8 11 13 13 11 12 12 11 13 11 18 19 20 20 19 15 12 9 11 13 14 14 12 11 10 11 18 20 20 19 18 20 16 13 18 17 12 10 5
17 18 19 19 18 18 18 19 18 18 17 17 17 17 17 18 19 17 17 16 16 15 14 13 12 13 11 7 6 5 3 2 3 3 3 2 1 2 1 1 2 3 5 7 7 6 5 10 12 10 10 11 12 10 14 15 13 19 18 20 20 19 13 12 13 13 13 12 12 11 11 10 15 17 18 18 18 17 14 18 19 19 17 12 7
17 18 19 18 18 19 18 19 17 19 17 17 16 17 19 19 18 17 18 17 16 15 13 13 13 11 11 10 7 5 4 4 3 2 3 3 3 2 2 3 5 7 9 9 9 8 8 9 12 10 10 11 11 11 10 15 19 18 18 18 18 19 17 14 11 13 11 12 11 8 8 12 13 14 17 17 16 17 20 18 19 20 17 10 10
17 17 18 18 18 19 19 20 19 19 17 16 16 16 18 18 17 16 16 17 17 16 14 14 13 11 11 9 8 8 5 4 4 3 3 3 3 3 4 5 6 7 9 9 9 8 8 9 11 14 11 10 11 10 11 10 13 14 15 18 20 19 18 17 16 13 15 15 15 15 11 8 9 11 11 8 7 11 16 19 19 17 10 9 10
16 15 16 17 18 19 20 20 19 19 18 17 17 16 16 16 15 15 16 16 16 16 15 14 14 12 11 10 8 8 8 4 5 5 4 3 3 4 5 7 8 9 10 10 11 13 11 12 14 14 10 10 10 11 11 10 11 10 10 10 12 12 16 15 13 12 13 12 14 13 11 11 6 9 13 12 12 11 11 11 9 8 8 9 11
14 15 16 17 18 19 20 20 18 18 17 17 16 17 16 17 16 16 16 16 15 15 14 14 14 12 11 10 9 7 7 4 4 4 4 4 5 6 7 8 10 11 12 12 12 12 15 16 14 11 11 11 12 12 13 12 12 12 12 12 12 12 11 10 10 10 13 13 13 12 12 10 7 4 6 6 8 10 10 9 10 10 10 11 13
14 15 15 15 16 18 18 19 17 17 17 16 17 17 17 18 17 17 17 16 16 15 14 14 13 11 12 11 9 10 9 8 7 6 5 4 5 7 8 10 12 14 12 12 13 12 12 12 11 11 12 13 12 13 14 11 11 12 13 12 13 13 14 12 12 13 11 11 11 11 9 11 9 10 8 8 8 8 9 10 13 14 13 12 12
13 12 15 16 16 17 17 18 16 16 17 17 17 17 17 17 17 17 17 17 16 14 15 13 12 11 12 12 12 12 11 11 12 12 12 11 9 9 9 9 11 11 13 9 5 3 4 6 8 11 12 11 11 8 5 7 10 13 14 14 13 12 14 13 12 15 12 12 11 11 9 10 11 10 11 10 10 10 10 11 11 13 12 13 13
13 14 14 15 15 16 17 18 17 16 16 16 16 17 17 17 17 17 16 16 16 13 12 12 13 12 13 12 11 11 12 11 12 13 11 11 10 12 12 11 10 5 11 12 11 10 11 9 3 6 9 16 17 16 7 7 9 14 16 16 14 13 15 16 13 11 9 12 11 11 10 10 11 11 11 10 9 10 10 10 12 12 13 14 13
Wind_Direction
26 24 21 18 12 8 2 2 2 8 13 9 9 3 350 17 2 341 290 227 192 186 174 203 207 214 214 216 219 214 214 202 198 200 204 205 205 207 207 202 202 206 208 206 207 201 196 191 183 188 188 193 203 206 213 210 187 176 168 166 164 170 176 183 166 172 170 163 170 140 128 120 125 146 137 139 145 163 139 137 119 131 131 188 139
32 25 24 23 18 11 8 5 3 2 8 8 9 3 346 343 18 357 331 282 216 196 194 197 210 216 216 221 219 217 211 212 210 207 210 212 206 208 209 208 204 208 211 211 211 209 202 203 192 186 187 187 200 206 203 210 191 184 171 163 179 179 174 176 168 181 193 222 188 171 158 157 143 138 147 141 162 149 142 130 133 132 151 51 81
23 29 21 21 22 17 12 7 3 359 355 8 4 357 2 349 339 352 336 320 290 236 217 218 219 223 226 225 223 220 216 217 216 215 214 215 211 210 208 210 209 208 209 211 213 215 214 211 203 192 186 180 187 203 203 198 192 193 183 176 174 182 175 171 175 202 221 195 214 197 189 186 161 169 135 144 150 130 172 158 151 146 182 168 202
5 12 16 12 14 21 14 8 0 352 355 357 0 353 349 346 341 333 331 318 305 300 254 243 240 240 239 240 236 234 222 209 215 214 217 215 216 214 214 210 210 214 214 213 214 215 217 217 216 209 194 191 182 196 206 202 192 199 199 189 172 170 175 173 184 196 228 170 197 218 184 227 197 188 166 124 140 159 203 175 167 159 167 192 234
353 357 8 8 11 11 14 8 356 351 352 352 348 345 339 332 332 330 319 311 307 304 297 257 250 258 273 262 250 238 230 226 217 218 215 214 217 214 214 211 209 209 212 214 215 216 216 217 218 215 202 199 192 194 205 210 198 200 202 198 183 174 168 157 180 190 203 201 257 178 177 219 246 128 170 139 149 155 179 185 169 170 183 174 149
351 348 353 1 4 5 6 1 359 350 345 347 337 332 329 326 326 328 320 314 311 301 296 276 245 213 233 233 232 226 219 218 219 218 214 212 214 215 216 214 213 212 214 215 216 217 217 217 219 219 204 204 202 198 200 205 208 201 202 201 191 182 165 156 169 189 201 200 239 240 318 324 176 149 238 173 175 120 142 182 176 182 183 193 183
349 344 344 351 0 357 358 358 348 347 340 333 331 325 320 319 322 321 319 318 311 296 284 288 257 227 226 229 234 235 228 220 221 224 224 220 216 218 216 216 217 215 216 215 215 217 220 219 219 222 214 206 205 206 200 201 204 206 204 202 204 188 179 175 169 169 184 195 208 218 233 227 257 199 221 214 203 154 169 179 178 191 188 196 200
350 344 339 339 348 356 352 348 344 339 333 328 323 319 315 313 311 308 306 308 306 301 289 277 274 243 225 232 236 234 240 229 221 222 222 223 214 212 217 215 216 218 215 219 218 216 219 220 219 219 221 211 208 211 207 196 199 204 211 206 208 198 190 190 172 170 178 182 192 195 201 215 227 218 267 274 278 238 175 181 170 186 206 208 203
357 344 335 334 337 344 347 344 338 333 333 325 320 318 310 307 306 304 303 300 299 306 301 287 275 277 244 222 233 240 236 248 239 230 229 223 226 218 220 221 219 218 218 217 220 217 214 218 221 221 219 218 212 216 213 202 196 197 197 205 203 197 194 192 180 176 182 179 176 190 193 203 208 221 227 233 253 245 225 180 176 183 212 211 209
357 346 330 331 331 331 337 336 335 337 329 322 316 312 311 308 303 304 302 301 298 300 300 294 287 282 263 230 222 231 238 261 259 254 236 227 229 227 225 224 219 211 212 214 215 222 221 216 218 222 220 218 216 217 216 211 201 198 196 198 200 195 185 193 193 183 185 179 183 176 192 196 213 212 205 220 233 260 273 235 163 176 201 201 191
353 339 333 334 331 324 327 329 333 331 329 321 317 314 312 306 302 298 299 297 293 290 292 292 289 272 268 249 229 222 220 228 232 242 243 235 230 228 227 226 222 220 211 210 207 212 220 221 216 221 220 218 220 215 215 211 206 204 197 194 199 200 191 190 197 197 189 183 185 187 196 199 209 208 212 212 229 219 223 244 202 196 220 169 183
349 336 338 336 329 325 327 325 326 328 326 325 319 315 309 306 302 298 297 295 292 285 282 284 279 265 261 266 246 229 220 226 229 235 238 249 236 229 229 225 223 222 214 207 205 203 209 218 217 220 219 214 215 217 216 214 210 206 204 198 198 198 197 190 193 201 197 190 191 193 199 207 206 216 212 220 216 229 230 232 215 199 218 192 148
344 338 337 337 328 326 324 322 323 323 322 316 319 315 307 301 301 299 297 298 294 289 279 274 275 271 266 262 260 245 230 225 228 229 223 230 236 237 228 229 227 225 219 216 207 201 200 208 214 216 218 214 211 211 216 215 212 211 209 204 201 197 197 192 190 197 196 201 197 200 198 205 212 209 217 212 216 236 238 236 218 189 219 172 157
338 339 340 329 327 327 324 324 321 318 316 315 310 312 306 301 298 295 293 296 294 290 283 272 261 266 265 262 258 255 244 226 224 224 222 229 231 236 237 230 231 230 226 220 210 203 203 203 210 215 217 214 210 211 214 214 213 217 212 209 206 202 199 194 194 191 198 206 207 201 202 206 211 214 207 209 212 214 224 227 219 198 227 197 176
338 339 330 328 327 323 322 320 319 316 313 311 312 305 305 299 296 294 293 290 290 289 287 275 263 252 258 258 253 255 252 240 230 228 225 227 228 229 239 242 233 232 232 229 223 212 205 203 203 212 222 226 210 207 206 211 211 217 222 213 209 205 202 196 197 192 195 201 205 206 205 210 210 213 205 212 213 214 220 218 215 209 208 209 199
338 334 329 328 325 324 322 322 319 315 314 308 306 307 300 298 294 291 289 288 285 282 279 278 269 258 247 252 254 249 252 251 240 233 231 229 228 224 226 234 239 233 233 234 231 225 210 204 196 180 218 236 224 211 204 208 206 208 215 215 212 207 205 199 199 197 199 199 202 206 212 211 209 211 211 212 216 211 216 218 216 216 215 208 205
334 330 326 328 326 324 322 317 316 316 312 309 306 303 301 298 295 291 288 285 281 278 274 272 270 261 252 244 247 248 245 243 241 240 237 233 232 230 227 227 229 229 232 233 236 226 220 207 191 190 204 213 213 205 204 204 205 207 209 210 211 210 209 206 203 204 200 198 202 205 213 214 211 207 214 211 212 212 214 217 218 219 219 230 209
331 325 325 325 326 324 323 323 321 317 311 308 304 301 298 296 293 291 287 283 281 277 273 269 266 261 253 248 241 241 244 243 238 238 240 238 233 232 231 231 229 227 231 234 233 233 229 217 199 198 202 214 218 208 199 198 199 202 204 206 207 210 213 213 210 206 200 198 202 205 211 217 208 206 209 212 212 210 213 215 216 217 223 233 227
325 326 328 328 325 324 323 321 317 314 311 306 304 303 299 295 292 291 288 285 282 279 271 266 260 256 253 248 244 238 236 238 238 233 233 236 235 234 233 232 231 228 225 229 239 237 232 225 218 209 207 209 217 222 211 202 196 198 201 204 203 206 213 214 209 208 206 201 201 205 208 214 210 207 212 210 211 209 209 216 216 217 220 228 234
330 327 327 325 324 324 323 319 317 317 313 309 305 301 297 295 292 287 286 283 280 277 272 265 258 254 251 248 245 242 236 234 232 230 229 230 232 233 234 232 229 226 223 220 228 233 231 228 224 222 218 215 211 208 211 214 204 200 202 201 202 204 212 214 210 208 210 207 203 204 206 210 210 208 211 209 208 208 209 214 214 215 220 223 226
327 328 325 325 325 323 322 322 319 316 313 309 306 302 299 294 289 287 284 283 280 276 273 268 261 254 249 245 243 242 240 237 233 228 227 227 228 228 230 229 228 226 223 217 218 225 227 227 226 223 221 214 214 213 207 212 216 205 200 201 203 207 211 214 213 210 211 211 209 206 205 208 212 213 213 212 209 205 205 214 215 215 218 217 218
329 327 323 323 322 320 321 320 317 314 313 311 308 304 299 296 292 287 283 279 277 276 271 268 265 256 250 247 242 239 239 236 234 228 226 226 225 226 227 226 225 222 218 216 215 214 218 223 224 224 225 221 210 219 214 205 216 216 208 201 203 207 210 211 212 214 209 209 210 211 211 210 213 215 216 214 209 205 204 206 211 214 215 217 216
326 321 320 319 320 323 324 321 319 316 311 308 306 304 301 298 294 287 281 278 275 274 271 268 263 262 255 249 245 239 236 235 232 230 226 226 226 226 225 224 220 217 213 213 214 213 213 219 221 223 224 223 218 215 220 211 212 214 213 208 207 207 207 208 209 213 210 207 208 209 213 212 211 215 215 217 211 209 207 207 208 209 215 219 217
326 324 320 321 322 323 322 321 319 315 312 308 303 300 297 295 293 288 283 279 276 271 270 265 262 258 256 252 247 241 236 234 231 228 229 225 224 224 225 224 220 212 213 213 210 213 216 217 220 222 222 223 219 215 216 221 218 215 212 212 210 210 209 208 210 212 212 209 211 210 211 213 211 214 214 212 213 211 207 208 207 207 213 217 220
328 326 326 325 326 325 325 323 320 317 313 309 305 302 299 295 291 288 284 280 275 272 267 264 259 258 254 251 246 241 236 233 232 229 228 227 224 224 224 223 219 210 210 217 206 210 215 216 218 222 221 221 217 212 209 223 224 218 215 214 212 210 210 210 211 214 213 211 210 212 211 211 212 214 213 213 211 211 210 208 207 207 212 214 218
329 327 326 329 329 327 323 322 319 317 315 311 309 305 301 296 292 287 283 278 272 267 263 261 259 254 252 248 246 241 237 233 232 232 230 228 225 223 222 220 218 211 210 213 201 206 210 215 217 220 222 223 218 202 202 214 230 228 218 216 215 213 213 212 211 213 213 212 214 211 212 211 212 213 213 213 212 211 211 211 206 207 209 213 221
329 327 328 330 328 326 323 322 322 318 315 312 310 307 302 295 290 286 281 278 275 270 264 258 255 253 249 247 244 241 237 233 230 232 230 226 225 223 222 219 217 214 210 206 200 203 216 215 217 219 223 225 222 208 201 205 221 231 228 222 216 217 216 212 213 213 214 215 214 214 212 212 214 214 214 212 209 210 211 213 208 203 207 211 218
327 327 330 328 325 325 324 322 321 319 317 316 312 307 299 294 288 284 279 276 272 269 265 259 253 250 247 244 245 244 239 234 230 228 231 228 224 222 220 218 214 211 209 205 198 205 221 216 217 219 222 225 224 215 203 202 213 231 233 233 216 211 214 209 210 213 214 214 215 215 214 212 213 213 213 211 209 208 207 210 206 200 200 210 212
327 327 327 327 327 327 325 325 324 322 321 318 313 306 301 295 290 285 279 274 270 265 261 258 254 250 246 243 240 244 240 235 230 227 229 229 224 221 219 214 212 209 208 203 196 198 217 220 212 218 222 224 223 184 133 132 187 237 239 230 219 212 210 213 208 212 214 215 214 213 213 212 211 213 212 213 210 206 206 205 203 197 197 204 212
327 328 327 328 328 327 327 326 325 325 321 317 313 310 306 302 296 290 280 273 268 262 258 253 252 249 247 241 235 236 236 232 229 226 227 226 227 220 218 214 212 207 207 204 198 202 218 218 210 216 223 219 200 200 176 170 176 195 246 286 271 238 228 221 214 217 215 215 214 213 213 214 209 207 209 213 220 211 212 214 197 195 194 198 205
328 328 328 327 328 328 328 328 327 324 321 317 313 310 306 300 295 291 283 278 269 260 253 251 249 248 246 239 232 232 233 228 226 226 225 222 223 219 216 214 210 208 204 200 192 201 219 219 210 215 222 214 210 196 162 162 172 185 186 192 203 223 231 253 241 225 223 215 214 214 213 207 207 199 203 205 213 216 208 219 229 209 197 196 198
328 326 328 328 327 328 329 327 323 321 320 318 315 312 307 301 302 301 293 283 271 256 247 248 243 242 243 238 227 227 229 226 224 223 222 221 221 213 216 220 215 206 201 198 194 195 217 212 206 216 221 214 214 178 177 190 192 194 197 187 189 199 204 207 213 215 219 222 215 212 213 211 209 213 212 202 209 214 210 211 221 230 217 212 213
326 326 326 324 327 328 327 325 324 320 318 316 315 312 308 309 309 304 299 289 273 258 250 243 234 234 236 236 225 223 226 223 222 221 217 221 211 195 206 217 212 198 189 204 215 207 212 199 201 210 213 210 213 183 189 197 195 190 195 196 195 206 208 205 207 208 216 222 216 210 209 212 211 195 209 212 211 208 212 215 217 228 237 227 224
328 325 324 322 325 325 325 324 320 317 315 316 314 311 310 310 311 308 308 310 296 266 257 242 231 229 231 228 220 221 222 220 220 217 213 214 214 208 202 208 215 204 201 196 213 215 200 197 201 207 206 209 213 185 181 187 194 196 201 207 238 224 218 213 205 205 216 225 223 214 211 207 211 194 204 212 211 211 207 207 216 221 223 228 234
328 326 323 322 324 324 323 321 320 321 321 322 319 318 317 314 317 316 316 314 315 270 245 237 235 228 224 219 216 219 217 217 217 214 203 196 213 216 197 210 203 199 203 199 203 213 202 202 202 204 206 207 212 164 176 182 191 197 200 198 221 234 233 221 219 219 230 232 229 217 212 210 207 207 204 205 209 208 207 209 212 215 222 225 222
327 323 320 323 324 322 320 318 321 324 325 325 322 320 318 314 313 319 323 318 319 299 248 227 227 223 220 215 214 212 213 213 213 206 200 190 198 221 201 193 194 202 207 211 207 205 202 203 203 202 205 203 202 159 180 181 187 196 195 198 210 222 230 223 218 232 231 231 235 231 217 214 208 210 197 192 208 209 206 208 211 215 220 222 225
324 322 322 322 322 322 322 322 324 325 326 328 323 322 321 316 315 322 326 325 324 334 302 246 226 225 220 214 211 211 206 210 206 198 202 193 199 211 208 195 194 199 201 202 193 201 208 204 201 201 199 205 210 167 180 184 187 191 186 203 203 215 226 226 217 219 226 227 228 228 221 218 211 212 191 181 200 220 210 209 210 212 215 215 219
327 325 325 327 327 326 325 327 327 326 331 331 328 324 323 318 315 327 327 330 337 334 337 310 254 227 224 220 215 210 204 205 199 199 197 200 195 199 206 200 201 202 197 193 193 199 203 199 197 193 193 200 209 189 182 186 187 184 190 203 209 211 215 221 223 215 219 227 231 231 229 220 217 215 182 180 190 199 219 213 212 213 213 215 217
331 331 330 330 328 327 328 330 332 332 335 335 333 325 325 325 324 330 335 335 339 338 335 325 320 273 229 218 220 215 215 211 211 204 200 203 199 204 207 201 209 204 194 192 192 200 198 202 196 193 186 198 206 189 179 181 185 182 191 210 211 208 210 218 222 223 218 221 230 218 216 227 223 220 174 179 184 186 211 217 217 215 215 216 216
335 333 335 332 331 331 336 339 339 340 338 339 339 334 333 335 330 332 331 330 333 333 325 318 294 310 278 243 257 300 12 351 354 8 17 2 360 306 250 214 211 208 202 193 194 196 195 202 199 192 186 197 208 192 171 178 180 181 189 204 217 212 213 213 216 221 221 223 226 228 211 210 221 230 176 184 179 191 205 217 219 219 219 219 215
341 337 333 336 335 337 340 342 342 343 344 343 345 341 342 339 336 335 341 335 330 330 331 329 4 103 37 77 82 88 116 128 104 353 250 228 169 166 347 315 268 229 205 196 192 198 200 209 202 190 186 196 200 208 174 178 177 180 187 197 215 217 217 213 214 217 222 224 224 221 230 196 205 218 192 186 191 195 205 220 221 223 222 222 222
344 342 342 339 337 340 343 344 345 349 348 348 347 345 343 343 339 342 338 331 335 338 343 352 6 70 59 91 105 119 132 124 158 183 182 133 113 310 249 119 316 315 301 254 213 212 209 210 203 186 191 195 197 204 189 175 180 183 184 195 208 217 219 217 219 223 223 226 225 225 228 184 193 208 213 187 198 203 208 217 228 231 232 234 232
348 347 350 345 341 343 345 346 345 350 351 349 349 345 347 343 346 341 337 336 338 343 351 358 9 41 27 35 65 74 75 98 96 60 66 83 62 325 221 127 67 310 270 287 305 286 266 231 205 197 194 196 199 191 203 177 182 184 188 194 207 218 216 226 230 228 229 230 230 232 229 194 189 200 204 199 198 205 207 216 225 244 251 243 253
349 352 352 348 346 345 346 348 348 351 352 355 349 348 346 347 347 343 341 341 343 345 349 3 13 11 34 37 21 34 51 101 133 140 154 159 157 189 212 264 186 184 259 248 242 257 249 251 244 210 197 199 201 203 191 181 174 189 189 194 203 215 219 221 228 237 237 237 235 232 236 204 186 198 200 200 204 202 206 212 218 228 244 246 236
350 354 353 352 353 349 350 350 352 353 354 355 356 350 349 350 347 344 344 344 346 346 349 1 9 19 12 5 29 44 31 13 43 52 30 16 15 342 270 226 216 195 211 235 244 229 219 235 252 236 206 207 204 209 201 180 177 180 188 195 203 209 218 220 229 235 247 250 253 255 251 234 197 192 194 198 206 210 214 215 212 217 224 231 230
351 354 352 352 354 357 354 353 353 357 356 357 356 354 353 350 346 346 346 347 348 350 352 356 2 9 17 13 4 4 12 52 359 354 3 356 326 317 288 269 255 243 228 218 228 240 240 230 223 235 223 214 214 215 213 185 178 180 188 194 197 202 211 215 219 234 239 250 266 273 274 270 233 205 191 190 197 210 216 219 220 218 218 222 226
351 353 353 352 357 359 1 356 355 357 358 357 357 355 354 352 352 348 351 352 351 354 354 356 358 1 8 12 1 13 334 6 5 350 330 330 334 306 295 277 263 254 245 232 208 215 222 222 227 231 224 223 221 221 219 206 177 184 191 191 201 208 212 213 215 231 239 249 253 255 254 251 247 203 205 194 200 204 209 218 225 220 216 214 219
351 353 352 356 356 0 2 0 356 357 358 357 355 359 359 356 356 356 354 356 359 360 356 359 359 4 4 358 356 4 346 360 2 350 334 336 335 328 303 291 279 266 252 240 234 226 222 224 226 226 226 227 227 224 222 217 211 206 206 204 199 204 208 207 216 221 229 237 241 245 248 255 243 220 215 230 216 214 210 204 213 212 215 219 224
351 350 357 355 358 357 2 2 356 355 355 357 358 1 2 2 359 359 358 360 2 1 2 3 2 3 2 355 356 2 5 2 3 355 347 355 355 338 322 294 282 270 266 255 250 237 232 234 236 231 227 227 232 232 229 221 214 196 201 209 208 208 211 214 210 206 224 235 239 238 237 234 227 223 208 208 209 211 212 213 218 222 218 215 220
350 352 351 356 356 358 1 3 0 356 356 355 356 360 2 4 3 3 3 5 3 2 4 2 2 2 1 357 2 6 5 5 4 358 354 342 348 341 341 321 293 316 350 7 36 294 326 323 268 247 237 238 236 248 16 160 180 178 183 204 223 209 203 212 198 185 205 234 233 230 225 226 229 223 221 214 210 210 211 214 218 221 223 224 221
351 348 355 354 355 358 3 5 4 2 360 357 355 357 358 2 4 7 8 7 6 6 4 4 1 0 359 358 3 4 1 2 3 5 360 356 342 348 360 4 314 12 21 21 30 34 49 63 29 295 312 333 331 331 316 212 182 173 181 197 203 189 186 198 194 166 199 217 228 229 227 226 225 227 223 219 210 213 211 212 218 219 221 226 224